Location: Peebles
(55.6412°N, 3.1714°W)
Time: 14:14:04
(UTC+01:00)

deb Agena D - Pass Details

Date: 19 September 2024
Orbit: 793 x 976 km, 99.8° (Epoch: 03 October)

Event Time Altitude Azimuth Distance (km) Brightness Sun altitude
Rises 05:42:20 0° 15° (NNE) 3,419 9.9 -10.6°
Reaches altitude 10° 05:45:13 10° 359° (N) 2,510 8.9 -10.2°
Maximum altitude 05:49:11 21° 314° (NW) 1,901 7.8 -9.7°
Enters shadow 05:53:12 10° 268° (W) 2,568 8.1 -9.1°
